Location: Castillon
(43.0896°N, 0.2156°E)
Time: 02:51:46
(UTC+00:00)

Cosmos 676 Rocket - Pass Details

Date: 16 June 2021
Orbit: 754 x 784 km, 74.0° (Epoch: 04 August)

Event Time Altitude Azimuth Distance (km) Brightness Sun altitude
Rises 20:07:28 0° 343° (NNW) 3,277 8.3 -4.8°
Reaches altitude 10° 20:09:55 10° 348° (NNW) 2,347 7.4 -5.1°
Maximum altitude 20:15:10 55° 66° (ENE) 942 4.4 -5.8°
Drops below altitude 10° 20:20:22 10° 144° (SE) 2,335 5.9 -6.6°
Enters shadow 20:21:03 - 146° (SE) 2,587 6.1 -6.7°
